Regional Weather Roundup
Issued by NWS

Home | Current Version | Previous Version | Graphics & Text | Print | Product List | Glossary On
Versions: 1 2 3 4 5 6 7 8 9 10 11 12 13 14 15 16 17 18 19 20 21 22 23 24 25 26 27 28 29 30 31 32 33 34 35 36 37 38 39 40 41 42 43 44 45 46 47 48 49 50
000
ASUS45 KTFX 181419
RWRMT
MONTANA HOURLY WEATHER ROUNDUP
NATIONAL WEATHER SERVICE GREAT FALLS MT
819 AM MDT THU SEP 18 2014

NOTE: "FAIR" INDICATES FEW OR NO CLOUDS BELOW 12000 FEET WITH NO
SIGNIFICANT WEATHER AND/OR OBSTRUCTIONS TO VISIBILITY.

* THESE STATIONS ARE NOT UNDER NWS QUALITY CONTROL. THEY DO NOT
   REPORT WEATHER SUCH AS PRECIPITATION OR FOG.

MTZ001>007-043-181500-
WEST OF THE DIVIDE
CITY           SKY/WX    TMP DP  RH WIND       PRES   REMARKS
KALISPELL      SMOKE     50  48  93 CALM      29.71R
MISSOULA       CLOUDY    59  45  60 VRB6      29.77R
BUTTE          CLOUDY    55  48  77 NW5       29.96S
MULLAN PASS    CLOUDY    57  37  47 VRB6      29.86S
* ESSEX        N/A       49  44  83 NW2        N/A
* LINCOLN      N/A       39  37  93 NE2        N/A
* LOOKOUT PASS N/A       59  40  50 SE2        N/A
* POLSON       N/A       57  50  78 S2G8       N/A
* RONAN APT    CLOUDY    57  52  83 N/A        N/A
* SEELEY LAKE  N/A       49  41  74 E2G9       N/A
* THOMP F APT  CLOUDY    58  45  62 N3G9       N/A
$$

MTZ008-052>055-181500-
SOUTHWEST MONTANA
CITY           SKY/WX    TMP DP  RH WIND       PRES   REMARKS
BOZEMAN        LGT RAIN  54  50  86 NE7       29.97R
DILLON         CLOUDY    57  48  72 S6        29.96R
W YELLOWSTONE  LGT RAIN  45  43  93 S3        30.11R
* THREE FORKS  CLOUDY    54  36  51 N/A        N/A
* BOULDER HILL N/A       56  40  55 S11        N/A
* MONIDA PASS  N/A       54  50  86 E8         N/A
* RAYNOLDS PAS N/A       59  46  62 SW9G16     N/A
* WHITEHALL    N/A       54  45  72 SW10G23    N/A
* WISE RIVER   N/A       49  40  71 E3G14      N/A
$$

MTZ009>010-012-014-046-048-049-054-181500-
EAST SLOPES AND CENTRAL MONTANA
CITY           SKY/WX    TMP DP  RH WIND       PRES   REMARKS
CUT BANK       CLOUDY    57  43  60 SW5       29.71S
GREAT FALLS    PTSUNNY   66  43  43 S13       29.71S
HELENA         CLOUDY    55  45  69 VRB5      29.84R
MALMSTROM AFB  PTSUNNY   64  45  50 SW13      29.72S
* CONRAD       CLOUDY    52  48  86 N/A        N/A
* EAST GLACIER N/A       53  38  57 W1         N/A
* MONARCH      N/A       57  36  46 S11        N/A
* PENDROY      N/A       63  42  46 SW5        N/A
* ROGERS PASS  N/A       59  36  42 NW4        N/A
* SAINT MARY   N/A       42  40  93 SE3        N/A
* SWEET GRASS  N/A       65  40  40 W10G17     N/A
* WHITE SULPH  N/A       54  40  59 N3G12      N/A
$$

MTZ011-013-016-021-035-040-045-047-050-051-181500-
NORTH CENTRAL MONTANA
CITY           SKY/WX    TMP DP  RH WIND       PRES   REMARKS
HAVRE          PTCLDY    52  48  86 SW5       29.66S
LEWISTOWN      PTCLDY    57  45  64 SE3       29.76F
* CHINOOK      PTCLDY    50  50 100 CALM      29.66R
* CHESTER      N/A       52  47  83 N/A        N/A
* DENTON       N/A       61  45  56 S8         N/A
* GEYSER       N/A       56  46  69 S6         N/A
* JUDITH GAP   N/A       53  49  86 SE9        N/A
* LOMA         N/A       59  51  75 N2         N/A
$$

MTZ017>020-022>027-061-062-181500-
NORTHEAST MONTANA
CITY           SKY/WX    TMP DP  RH WIND       PRES   REMARKS
GLASGOW        PTSUNNY   55  48  77 E12       29.66F
GLENDIVE       SUNNY     57  52  83 S5        29.76S
JORDAN         PTCLDY    54  48  80 CALM      29.69F
SIDNEY         SUNNY     57  52  83 S6        29.75F
WOLF POINT     PTCLDY    54  48  80 E6        29.68F
* BEAVER HILL  N/A       59  51  75 SE19G24    N/A
* CIRCLE       N/A       62  53  73 SW3        N/A
* LINDSAY DVD  N/A       54  50  86 SE2        N/A
* NAVAJO       N/A       53  49  86 S13        N/A
* SACO         N/A       52  49  90 E6         N/A
$$

MTZ028>042-056>058-181500-
SOUTHCENTRAL AND SOUTHEAST MONTANA
CITY           SKY/WX    TMP DP  RH WIND       PRES   REMARKS
BAKER          SUNNY     57  52  83 SE8       29.81S
BILLINGS       CLOUDY    66  45  47 SW9       29.80R
LIVINGSTON     LGT RAIN  63  48  58 SW13      29.89R
MILES CITY     PTSUNNY   59  52  78 S10       29.73F
* LAUREL APT   CLOUDY    70  43  38 S10        N/A
* ROUNDUP APT  CLOUDY    54  48  80 N/A        N/A
* ALZADA       N/A       57  51  80 SE2        N/A
* HYSHAM       N/A       61  45  56 W6         N/A
* LAME DEER    N/A       66  42  42 S9         N/A
* REED POINT   N/A       54  50  86 W7         N/A
* ROSCOE HILL  N/A       67  34  29 SW2G7      N/A
$$

REGIONAL REPORTS...DAKOTAS
CITY           SKY/WX    TMP DP  RH WIND       PRES   REMARKS
WILLISTON      SUNNY     57  48  72 S7        29.75F
DICKINSON      SUNNY     55  48  77 S17       29.81S
BEACH          N/A       55  54  96 S16G21    29.79S
CROSBY         SUNNY     55  50  83 S15G22    29.73F
TIOGA          SUNNY     55  54  96 S20G25    29.80F
WATFORD CITY   SUNNY     59  50  72 S12       29.75F
BISMARCK       SUNNY     54  48  80 NE6       29.89F
GRAND FORKS    FOG       46  45  96 SE14      29.99S VSB M1/4
FARGO          CLOUDY    52  50  93 SE12      30.00S
BUFFALO SD     SUNNY     54  50  86 SE6       29.79S
RAPID CITY     SUNNY     55  52  90 SE3       29.86F
$$

REGIONAL REPORTS...WYOMING/IDAHO/WASHINGTON
CITY           SKY/WX    TMP DP  RH WIND       PRES   REMARKS
GILLETTE       SUNNY     63  46  54 SE5       29.89S
SHERIDAN       PTSUNNY   55  48  77 CALM      29.83F
CODY           CLOUDY   N/A N/A N/A N/A        N/A
YELLOWSTONE LA CLOUDY    45  43  93 CALM      30.19R
SALMON         CLOUDY    55  46  72 SE3       29.87S
MULLAN PASS    CLOUDY    57  37  47 VRB6      29.86S
SAND POINT     CLOUDY    50  50 100 CALM      29.68R
SPOKANE        CLOUDY    63  41  45 S10       29.69R
$$

REGIONAL REPORTS...ALBERTA
CITY           SKY/WX    TMP DP  RH WIND       PRES   REMARKS
CALGARY        PTSUNNY   57  45  64 SW3       29.62S
LETHBRIDGE     PTSUNNY   54  48  80 SW10      29.64S
MEDICINE HAT   PTSUNNY   57  52  83 SW10      29.58F
EDMONTON       N/A       55  48  77 NE7       29.57F
WATERTON GATE  N/A       48  43  83 S2         N/A
CARDSTON       N/A       61  46  58 SW8        N/A
$$

REGIONAL REPORTS...SASKATCHEWAN
CITY           SKY/WX    TMP DP  RH WIND       PRES   REMARKS
SWIFT CURRENT  SUNNY     59  48  67 SW18      29.60S
MOOSE JAW      PTSUNNY   50  48  93 SE8       29.63F
REGINA         PTCLDY    50  46  86 SE15G22   29.67F
VAL MARIE      N/A       50  48  93 S2         N/A
ASSINIBOIA     N/A       54  48  80 SE6        N/A
CORONACH       N/A       52  48  86 SE5        N/A

$$



USA.gov is the U.S. government's official web portal to all federal, state and local government web resources and services.